Weather History for Jefferson, NC

Change the Weather History Date:

Thursday, May 16, 2013

  Actual Average Record
Temperature  
Mean Temperature 67 °F -  
Max Temperature 72 °F 70 °F 81 °F (1974)
Min Temperature 62 °F 47 °F 35 °F (2000)
Cooling Degree Days 2    
Growing Degree Days 17 (Base 50)    
Moisture  
Dew Point 43 °F    
Average Humidity 43    
Maximum Humidity 53    
Minimum Humidity 26    
Precipitation  
Precipitation 0.10 in - - ()
Sea Level Pressure  
Sea Level Pressure 30.09 in    
Wind  
Wind Speed 11 mph (WNW)    
Max Wind Speed 21 mph    
Max Gust Speed 30 mph    
Visibility 10 miles    
Events      
Averages and records for this station are not official NWS values.
T = Trace of Precipitation, MM = Missing Value Source: NWS Daily Summary

Daily Weather History Graph

Daily Weather History Graph

Search for Another Location

Airport:

Trip Planner

Search our weather history database for the weather conditions in past years. The results will help you decide how hot, cold, wet, or windy it might be!

Date:

Astronomy

May. 16, 2013 Rise Set
Actual Time 6:17 AM EDT 8:26 PM EDT
Civil Twilight 5:49 AM EDT 8:55 PM EDT
Nautical Twilight 5:13 AM EDT 9:30 PM EDT
Astronomical Twilight 4:35 AM EDT 10:09 PM EDT
Moon 11:46 AM EDT (5/16) 12:49 AM EDT (5/16)
Length of Visible Light 15h 06m
Length of Day
14h 08m
Waxing Crescent, 35% of the Moon is Illuminated
May 16
Waxing Crescent
May 18
First Quarter
May 25
Full
May 31
Last Quarter
Jun 8
New

Hourly Weather History & Observations

Time (EDT) Temp. Dew Point Humidity Pressure Visibility Wind Dir Wind Speed Gust Speed Precip Events Conditions
12:15 AM 68.0 °F 47.3 °F 47% 30.08 in 10.0 mi West 8.1 mph - N/A   Clear
12:35 AM 67.8 °F 47.5 °F 48% 30.07 in 10.0 mi West 10.4 mph 17.3 mph N/A   Clear
12:55 AM 67.1 °F 47.5 °F 49% 30.07 in 10.0 mi West 13.8 mph - N/A   Clear
1:15 AM 67.6 °F 47.7 °F 49% 30.06 in 10.0 mi West 17.3 mph 29.9 mph N/A   Clear
1:35 AM 67.5 °F 47.5 °F 49% 30.06 in 10.0 mi West 18.4 mph 24.2 mph N/A   Clear
1:55 AM 67.3 °F 46.6 °F 47% 30.06 in 10.0 mi West 17.3 mph 24.2 mph N/A   Clear
2:15 AM 66.7 °F 46.6 °F 48% 30.05 in 10.0 mi West 18.4 mph 29.9 mph N/A   Clear
2:35 AM 66.2 °F 46.2 °F 49% 30.05 in 10.0 mi WNW 13.8 mph 23.0 mph N/A   Clear
2:55 AM 65.8 °F 45.3 °F 47% 30.05 in 10.0 mi WNW 12.7 mph 24.2 mph N/A   Clear
3:15 AM 65.5 °F 44.1 °F 46% 30.04 in 10.0 mi WNW 12.7 mph 23.0 mph N/A   Clear
3:35 AM 65.3 °F 43.9 °F 46% 30.04 in 10.0 mi WNW 19.6 mph 26.5 mph N/A   Clear
3:55 AM 64.8 °F 44.6 °F 48% 30.04 in 10.0 mi West 20.7 mph 25.3 mph N/A   Clear
4:15 AM 64.6 °F 44.6 °F 48% 30.04 in 10.0 mi West 19.6 mph 29.9 mph N/A   Clear
4:35 AM 63.7 °F 44.6 °F 50% 30.04 in 10.0 mi West 13.8 mph 25.3 mph N/A   Clear
4:55 AM 63.5 °F 45.0 °F 51% 30.05 in 10.0 mi WNW 12.7 mph 25.3 mph N/A   Clear
5:15 AM 63.1 °F 44.8 °F 51% 30.05 in 10.0 mi NW 9.2 mph 23.0 mph N/A   Clear
5:35 AM 63.0 °F 44.6 °F 51% 30.06 in 10.0 mi WNW 10.4 mph 18.4 mph N/A   Clear
5:55 AM 62.6 °F 44.8 °F 52% 30.06 in 10.0 mi NW 4.6 mph - N/A   Clear
6:15 AM 62.1 °F 44.6 °F 53% 30.06 in 10.0 mi Calm Calm - N/A   Clear
6:35 AM 62.6 °F 44.1 °F 51% 30.06 in 10.0 mi WNW 4.6 mph - N/A   Clear
6:55 AM 62.8 °F 44.1 °F 50% 30.07 in 10.0 mi West 8.1 mph 21.9 mph N/A   Clear
7:15 AM 63.1 °F 44.4 °F 50% 30.07 in 10.0 mi WNW 8.1 mph 19.6 mph N/A   Clear
7:35 AM 62.4 °F 45.1 °F 53% 30.07 in 10.0 mi North 6.9 mph - N/A   Clear
7:55 AM - - N/A% - - North - - N/A   Unknown
8:15 AM - - N/A% - - North - - N/A   Unknown
8:35 AM - - N/A% - - North - - N/A   Unknown
8:55 AM - - N/A% - - North - - N/A   Unknown
9:15 AM 65.3 °F 45.1 °F 48% 30.09 in 10.0 mi West 5.8 mph - N/A   Clear
9:35 AM 65.7 °F 45.5 °F 48% 30.10 in 10.0 mi West 4.6 mph 18.4 mph N/A   Clear
9:55 AM 66.4 °F 45.9 °F 48% 30.10 in 10.0 mi West 9.2 mph 16.1 mph N/A   Clear
10:15 AM 66.7 °F 45.7 °F 47% 30.10 in 10.0 mi West 13.8 mph 21.9 mph N/A   Clear
10:35 AM 67.6 °F 45.9 °F 46% 30.11 in 10.0 mi West 19.6 mph 24.2 mph N/A   Clear
10:55 AM 68.4 °F 46.4 °F 45% 30.11 in 10.0 mi WNW 15.0 mph 28.8 mph N/A   Scattered Clouds
11:15 AM 68.0 °F 46.4 °F 46% 30.12 in 10.0 mi WNW 15.0 mph 24.2 mph N/A   Clear
11:35 AM 69.8 °F 46.6 °F 43% 30.12 in 10.0 mi WNW 12.7 mph 23.0 mph N/A   Clear
11:55 AM 69.8 °F 46.4 °F 43% 30.11 in 10.0 mi WNW 10.4 mph 26.5 mph N/A   Clear
12:15 PM 68.9 °F 46.0 °F 44% 30.12 in 10.0 mi NNW 5.8 mph 16.1 mph N/A   Clear
12:35 PM 69.4 °F 45.9 °F 43% 30.11 in 10.0 mi WNW 17.3 mph 23.0 mph N/A   Clear
12:55 PM 68.7 °F 46.6 °F 45% 30.12 in 10.0 mi West 13.8 mph 18.4 mph N/A   Scattered Clouds
1:15 PM 68.2 °F 46.4 °F 46% 30.11 in 10.0 mi WNW 9.2 mph 18.4 mph N/A   Scattered Clouds
1:35 PM 68.7 °F 47.3 °F 46% 30.10 in 10.0 mi West 9.2 mph - N/A   Clear
1:55 PM 69.3 °F 47.3 °F 45% 30.10 in 10.0 mi West 9.2 mph - N/A   Clear
2:15 PM 69.3 °F 46.0 °F 43% 30.10 in 10.0 mi WNW 13.8 mph - N/A   Clear
2:35 PM 70.2 °F 46.6 °F 43% 30.09 in 10.0 mi West 11.5 mph - N/A   Clear
2:55 PM 70.0 °F 45.0 °F 41% 30.09 in 10.0 mi WSW 9.2 mph 18.4 mph N/A   Clear
3:15 PM 69.6 °F 44.4 °F 40% 30.10 in 10.0 mi West 8.1 mph 17.3 mph N/A   Clear
3:35 PM 69.8 °F 41.9 °F 36% 30.09 in 10.0 mi West 8.1 mph 19.6 mph N/A   Clear
3:55 PM 69.6 °F 39.4 °F 33% 30.09 in 10.0 mi WSW 9.2 mph - N/A   Clear
4:15 PM 71.2 °F 37.6 °F 29% 30.08 in 10.0 mi West 9.2 mph - N/A   Clear
4:35 PM 72.7 °F 37.0 °F 27% 30.08 in 10.0 mi West 12.7 mph - N/A   Clear
4:55 PM 72.9 °F 37.2 °F 27% 30.08 in 10.0 mi West 11.5 mph 19.6 mph N/A   Clear
5:15 PM 72.7 °F 36.9 °F 27% 30.08 in 10.0 mi WNW 13.8 mph - N/A   Clear
5:35 PM 72.1 °F 35.6 °F 26% 30.08 in 10.0 mi West 12.7 mph 18.4 mph N/A   Clear
6:15 PM 70.0 °F 36.9 °F 30% 30.08 in 10.0 mi West 9.2 mph 16.1 mph N/A   Clear
6:35 PM 69.1 °F 38.1 °F 32% 30.08 in 10.0 mi West 10.4 mph - N/A   Clear
6:55 PM 68.7 °F 37.9 °F 32% 30.08 in 10.0 mi West 8.1 mph - N/A   Clear
7:15 PM 68.9 °F 35.1 °F 29% 30.08 in 10.0 mi West 12.7 mph 18.4 mph N/A   Clear
7:35 PM 68.2 °F 33.8 °F 28% 30.08 in 10.0 mi West 12.7 mph - N/A   Clear
7:55 PM 67.5 °F 34.9 °F 30% 30.09 in 10.0 mi West 12.7 mph 18.4 mph N/A   Clear
8:15 PM 66.9 °F 35.6 °F 31% 30.09 in 10.0 mi WNW 6.9 mph 18.4 mph N/A   Clear
8:35 PM 66.4 °F 36.5 °F 33% 30.10 in 10.0 mi NW 4.6 mph - N/A   Clear
8:55 PM 66.2 °F 37.4 °F 35% 30.10 in 10.0 mi Calm Calm - N/A   Clear
9:15 PM 66.2 °F 38.8 °F 37% 30.10 in 10.0 mi West 9.2 mph - N/A   Clear
9:35 PM 66.0 °F 42.3 °F 42% 30.11 in 10.0 mi NW 5.8 mph - N/A   Clear
9:55 PM 64.4 °F 42.1 °F 44% 30.11 in 10.0 mi NW 4.6 mph - N/A   Clear
10:15 PM 64.2 °F 43.3 °F 47% 30.12 in 10.0 mi West 9.2 mph - N/A   Clear
10:35 PM 64.8 °F 41.9 °F 43% 30.13 in 10.0 mi West 8.1 mph - N/A   Clear
10:55 PM 64.8 °F 42.1 °F 44% 30.13 in 10.0 mi WNW 9.2 mph - N/A   Clear
11:15 PM 64.6 °F 43.2 °F 46% 30.13 in 10.0 mi WNW 8.1 mph - N/A   Clear
11:35 PM 64.8 °F 44.4 °F 48% 30.12 in 10.0 mi WNW 8.1 mph - N/A   Clear
11:55 PM 64.0 °F 44.8 °F 50% 30.12 in 10.0 mi WNW 5.8 mph - N/A   Clear